Flag for Azerbaijan Weather past 2 weeks in Sumqayit, Azerbaijan

Now
46 °F

Overcast.


Feels Like: 43 °F
Forecast: 41 / 52 °F
Wind: 7 mph from Southeast

Location: Baku / Bine Airport

Current Time: Jan 31, 2015 at 12:06:18 PM

Latest Report: Jan 31, 2015 at 11:30 AM


Visibility: N/A

Pressure: 30.15 "Hg

Humidity: 82%

Dew point: 41 °F

Location of SumqayitLocation

Historic Weather in Sumqayit — Graph

°F

Sumqayit temperature yesterday

Maximum temperature yesterday: 46 °F (at 1:30 PM)
Minimum temperature yesterday: 39 °F (at 12:30 AM)
Average temperature yesterday: 43 °F

Past Weeks' High & Low Weather Summary

 TemperatureHumidityPressure
High50 °F (Jan 21, 2:30 PM)100% (Jan 17, 3:00 PM)30.57 "Hg (Jan 17, 3:00 PM)
Low28 °F (Jan 19, 8:00 AM)53% (Jan 18, 2:30 PM)29.86 "Hg (Jan 29, 9:00 AM)
Average41 °F84%30.25 "Hg
* Reported Jan 16 11:00 AM — Jan 31 11:00 AM, Sumqayit, Weather by CustomWeather, © 2014

Note: Actual official high and low records may vary slightly from our data, if they occured in-between our weather recording intervals... More about our weather records

Advertising

Sumqayit weather history for previous 24 hours

 ConditionsComfort  
Time TempWeatherWind HumidityBarometerVisibility
11:00 AM
Jan 31
45 °FOvercast.7 mph87%30.15 "HgN/A
10:30 AM45 °FOvercast.7 mph87%30.15 "HgN/A
10:00 AM45 °FOvercast.6 mph87%30.12 "HgN/A
9:30 AM45 °FOvercast.3 mph87%30.12 "HgN/A
9:00 AM45 °FOvercast.5 mph87%30.12 "HgN/A
8:30 AM45 °FOvercast.3 mph87%30.09 "HgN/A
8:00 AM45 °FOvercast.3 mph87%30.09 "HgN/A
7:00 AM45 °FOvercast.7 mph87%30.07 "HgN/A
6:30 AM45 °FOvercast.9 mph87%30.07 "HgN/A
6:00 AM45 °FOvercast.6 mph87%30.04 "HgN/A
5:30 AM45 °FOvercast.3 mph87%30.04 "HgN/A
5:00 AM45 °FOvercast.6 mph87%30.04 "HgN/A
4:30 AM45 °FOvercast.6 mph87%30.04 "HgN/A
4:00 AM45 °FOvercast.6 mph87%30.04 "HgN/A
3:30 AM45 °FOvercast.6 mph87%30.04 "HgN/A
3:00 AM45 °FOvercast.5 mph87%30.04 "HgN/A
2:30 AM45 °FOvercast.5 mph87%30.04 "HgN/A
2:00 AM45 °FOvercast.3 mph81%30.04 "HgN/A
1:30 AM45 °FOvercast.2 mph87%30.04 "HgN/A
1:00 AM45 °FOvercast.5 mph87%30.04 "HgN/A
12:30 AM45 °FOvercast.5 mph87%30.07 "HgN/A
12:00 AM45 °FOvercast.3 mph87%30.07 "HgN/A
11:30 PM
Jan 30
45 °FOvercast.5 mph87%30.04 "HgN/A
11:00 PM45 °FOvercast.5 mph93%30.07 "HgN/A
10:30 PM45 °FOvercast.5 mph87%30.07 "HgN/A
10:00 PM45 °FOvercast.5 mph87%30.07 "HgN/A
9:30 PM45 °FOvercast.6 mph87%30.07 "HgN/A
9:00 PM45 °FPassing clouds.5 mph87%30.09 "HgN/A
8:30 PM45 °FOvercast.5 mph87%30.09 "HgN/A
8:00 PM45 °FPassing clouds.5 mph87%30.07 "HgN/A
7:30 PM45 °FOvercast.3 mph87%30.07 "HgN/A
7:00 PM45 °FPassing clouds.5 mph87%30.07 "HgN/A
6:30 PM46 °FPassing clouds.8 mph82%30.07 "HgN/A
6:00 PM46 °FPassing clouds.7 mph82%30.07 "HgN/A
5:30 PM46 °FPartly sunny.7 mph82%30.04 "HgN/A
5:00 PM46 °FPartly sunny.8 mph82%30.04 "HgN/A
4:30 PM46 °FPartly sunny.6 mph82%30.04 "HgN/A
4:00 PM46 °FPartly sunny.7 mph82%30.04 "HgN/A
3:30 PM46 °FPartly sunny.6 mph82%30.04 "HgN/A
3:00 PM46 °FOvercast.6 mph76%30.04 "HgN/A
2:30 PM46 °FOvercast.7 mph82%30.07 "HgN/A
2:00 PM46 °FOvercast.6 mph76%30.07 "HgN/A
1:30 PM46 °FOvercast.7 mph76%30.07 "HgN/A
1:00 PM45 °FOvercast.6 mph81%30.09 "HgN/A
12:30 PM45 °FOvercast.5 mph81%30.09 "HgN/A
12:00 PM45 °FOvercast.5 mph81%30.09 "HgN/A
Weather by CustomWeather, © 2014

See weather overviewHow to use our weather pages